Montreal-Pierre Elliott T, Canada

7:38 AM EDT on September 26, 2016 (GMT -0400)
Montreal International (Dorval)

Weather History for CYUL - March, 2014

Change the Weather History Date:

Monday, March 3, 2014

  Actual Average Record
Temperature  
Mean Temperature 4 °F -  
Max Temperature 8 °F 28 °F 50 °F (2002)
Min Temperature 0 °F 14 °F -16 °F (2003)
Degree Days  
Heating Degree Days 61    
Moisture  
Dew Point -10 °F    
Average Humidity 50    
Maximum Humidity 66    
Minimum Humidity 24    
Precipitation  
Precipitation 0.00 in - - ()
Sea Level Pressure  
Sea Level Pressure 30.24 in    
Wind  
Wind Speed 7 mph ()    
Max Wind Speed 20 mph    
Max Gust Speed 22 mph    
Visibility 15.0 miles    
Events      
Averages and records for this station are not official NWS values.
T = Trace of Precipitation, MM = Missing Value Source: Averaged Metar Reports

Daily Weather History Graph

Daily Weather History Graph

Search for Another Location

Airport or City:

Trip Planner

Search our weather history database for the weather conditions in past years. The results will help you decide how hot, cold, wet, or windy it might be!

Date:

Astronomy

Mar. 03, 2014 Rise Set
Actual Time 6:29 AM EST 5:44 PM EST
Civil Twilight 6:00 AM EST 6:14 PM EST
Nautical Twilight 5:25 AM EST 6:48 PM EST
Astronomical Twilight 4:51 AM EST 7:23 PM EST
Moon 7:27 AM EST (3/3) 8:55 PM EST (3/3)
Length of Visible Light 12h 14m
Length of Day
11h 15m
Waxing Crescent, 8% of the Moon is Illuminated
Mar 3
Waxing Crescent
Mar 8
First Quarter
Mar 16
Full
Mar 23
Last Quarter
Mar 30
New

Hourly Weather History & Observations

Time (EST) Temp. Windchill Dew Point Humidity Pressure Visibility Wind Dir Wind Speed Gust Speed Precip Events Conditions
12:00 AM 3.2 °F -7.8 °F -5.8 °F 66% 30.11 in 15.0 mi SW 5.8 mph - N/A   Clear
1:00 AM 2 °F - -7 °F 52% 30.11 in 15 mi SW 2.3 mph - -   Scattered Clouds
1:00 AM 3.2 °F - -7.6 °F 61% 30.11 in 15.0 mi SW 2.3 mph - N/A   Partly Cloudy
2:00 AM 1.4 °F -8.3 °F -7.6 °F 66% 30.13 in 15.0 mi WSW 4.6 mph - N/A   Partly Cloudy
3:00 AM 1.4 °F -9.9 °F -9.4 °F 61% 30.12 in 15.0 mi West 5.8 mph - N/A   Clear
4:00 AM 3.2 °F -9.1 °F -11.2 °F 51% 30.13 in 15.0 mi West 6.9 mph - N/A   Partly Cloudy
5:00 AM 1.4 °F -11.3 °F -11.2 °F 56% 30.14 in 15.0 mi WSW 6.9 mph - N/A   Partly Cloudy
6:00 AM -0.4 °F -14.7 °F -11.2 °F 60% 30.16 in 15.0 mi WSW 8.1 mph - N/A   Partly Cloudy
7:00 AM -0 °F - -12 °F 42% 30.20 in 15 mi West 9.2 mph - -   Clear
7:00 AM -0.4 °F -15.7 °F -11.2 °F 60% 30.20 in 15.0 mi West 9.2 mph - N/A   Partly Cloudy
8:00 AM 1.4 °F -12.5 °F -9.4 °F 61% 30.24 in 30.0 mi WNW 8.1 mph - N/A   Partly Cloudy
9:00 AM 3.2 °F -6.2 °F -9.4 °F 56% 30.27 in 30.0 mi West 4.6 mph - N/A   Partly Cloudy
10:00 AM 5.0 °F -10.0 °F -11.2 °F 47% 30.27 in 30.0 mi NW 10.4 mph - N/A   Partly Cloudy
11:00 AM 6.8 °F -7.8 °F -9.4 °F 48% 30.27 in 30.0 mi West 10.4 mph - N/A   Partly Cloudy
12:00 PM 6.8 °F -6.9 °F -11.2 °F 44% 30.29 in 30.0 mi West 9.2 mph - N/A   Partly Cloudy
1:00 PM 8 °F - -12 °F 24% 30.29 in 28 mi West 10.4 mph - -   Scattered Clouds
1:00 PM 6.8 °F -9.3 °F -11.2 °F 44% 30.28 in 30.0 mi WSW 12.7 mph - N/A   Partly Cloudy
2:00 PM 8.6 °F -8.3 °F -9.4 °F 44% 30.28 in 30.0 mi WSW 15.0 mph 21.9 mph N/A   Partly Cloudy
3:00 PM 8.6 °F -8.9 °F -11.2 °F 40% 30.30 in 30.0 mi West 16.1 mph - N/A   Partly Cloudy
4:00 PM 8.6 °F -8.9 °F -9.4 °F 44% 30.31 in 30.0 mi WSW 16.1 mph - N/A   Clear
5:00 PM 6.8 °F -12.4 °F -11.2 °F 44% 30.32 in 30.0 mi WSW 18.4 mph - N/A   Clear
6:00 PM 5.0 °F -15.2 °F -11.2 °F 47% 30.34 in 30.0 mi WSW 19.6 mph - N/A   Clear
7:00 PM 4 °F - -11 °F 32% 30.34 in 15 mi WSW 13.8 mph - -  
7:00 PM 5.0 °F -13.0 °F -11.2 °F 47% 30.34 in 15.0 mi WSW 15.0 mph - N/A   Clear
8:00 PM 3.2 °F -12.2 °F -11.2 °F 51% 30.33 in 15.0 mi WSW 10.4 mph - N/A   Clear
9:00 PM 3.2 °F -11.3 °F -11.2 °F 51% 30.32 in 15.0 mi SW 9.2 mph - N/A   Clear
10:00 PM 1.4 °F -12.5 °F -11.2 °F 56% 30.32 in 15.0 mi SW 8.1 mph - N/A   Clear
11:00 PM 1.4 °F -15.3 °F -11.2 °F 56% 30.32 in 15.0 mi SW 11.5 mph - N/A   Clear